User: anonymous   Login
Location: *
(40.7873°S, 98.7174°E)
Time: 09:11:13
(UTC+00:00)
Language:

Cosmos 2233 Rocket - Orbit

View from above orbital plane
View from above orbital plane
View from above satellite
View from above satellite

Ground track
Ground track

The orbit data is extracted from the following two-line orbital elements,

1 22488U 93008B   22222.79633900  .00000067  00000-0  51798-4 0  9998
2 22488  82.9429 118.9027 0025456 358.0415  33.0526 13.77778837482928
Epoch (UTC): 10 August 2022 19:06:43
Eccentricity: 0.0025456
inclination: 82.9429°
perigee height: 953 km
apogee height: 990 km
right ascension of ascending node: 118.9027°
argument of perigee: 358.0415°
revolutions per day: 13.77778837
mean anomaly at epoch: 33.0526°
orbit number at epoch: 48292

The dashed part of the orbit path shows where the satellite is in the earth's shadow,  

DLR